Location: Newark
(25.0000°N, 73.5000°E)
Time: 00:51:03
(UTC+00:00)

ISS - Pass Details

Date: 23 June 2021
Orbit: 419 x 421 km, 51.6° (Epoch: 30 July)

Event Time Altitude Azimuth Distance (km) Brightness Sun altitude
Exits shadow 22:20:06 24° 116° (ESE) 921 -1.9 -22.9°
Drops below altitude 10° 22:22:30 10° 70° (ENE) 1,491 0.0 -22.5°
Sets 22:24:51 0° 56° (ENE) 2,357 1.5 -22.1°
